Location: Mairhof
(47.2333°N, 11.2167°E)
Time: 15:14:49
(UTC+00:00)

Daily predictions for brighter satellites

Satellite Brightness Start Highest point End
(mag) Time Altitude Azimuth Time Altitude Azimuth Time Altitude Azimuth
Cosmos 2237 Rocket 2.8 18:37:25 10° NNW 18:42:49 43° NE 18:48:09 10° SE
Helios 1A Rocket 3.3 18:41:45 10° S 18:45:48 68° WSW 18:49:56 10° NNW
Cosmos 1818 3.6 18:41:45 10° SSW 18:47:09 74° ESE 18:52:38 10° NE
DMSP B5D2-2 4.1 18:42:53 10° NNE 18:48:10 82° ESE 18:53:27 10° SSW
H-2A R/B 4.3 18:45:57 10° SSW 18:50:05 26° W 18:54:10 10° NW
Cosmos 1892 3.9 18:49:01 10° NNW 18:52:38 44° W 18:56:15 10° SSW
Cosmos 1825 2.1 18:50:28 10° N 18:54:16 84° E 18:58:02 10° S
Exosat Rocket 3.8 18:51:30 10° NNW 18:57:54 88° WSW 19:03:00 10° SSE
MetOp-A 4.3 18:52:44 10° SSE 18:58:06 80° WSW 19:03:30 10° NNW
Cosmos 2227 Rocket 3.1 18:54:07 10° SSE 18:58:42 26° ESE 19:03:18 10° NE
CZ-4C R/B 4.3 18:54:21 10° W 18:58:59 29° NNW 19:04:29 10° NNE
Abrixas rocket 0.2 18:57:45 10° WSW 18:59:19 89° ESE 19:00:44 12° ENE
BREEZE-M DEB (TANK) 3.8 18:57:50 10° WSW 19:00:51 87° NNW 19:08:39 10° ENE
ATLAS 2AS CENTAUR R/B 3.6 18:53:05 10° SW 19:00:56 63° NW 19:08:38 10° NE
Cosmos 1092 Rocket 4.3 18:54:58 10° NNW 19:01:14 75° W 19:07:23 10° S
Cosmos 2058 3.0 18:59:41 10° N 19:03:54 84° W 19:08:03 10° S
Cosmos 2297 Rocket 2.7 19:00:05 10° S 19:05:12 37° ESE 19:10:21 10° NE
FALCON 9 DEB 4.0 19:03:53 10° SSW 19:06:25 24° SE 19:08:59 10° E
Cosmos 1633 3.6 19:03:23 10° NNE 19:06:34 28° ENE 19:09:14 13° SE
Cosmos 405 4.5 19:03:56 10° SW 19:07:13 40° WNW 19:10:33 10° N
Lacrosse 5 rocket 3.6 19:04:42 10° NW 19:07:58 22° N 19:11:21 10° NE
FALCON 9 DEB 3.6 19:08:20 10° SSW 19:11:04 31° SE 19:13:49 10° ENE
Resurs 01 Rocket 2.3 19:08:36 11° SE 19:12:36 40° ENE 19:16:47 10° N
Resurs 1-3 3.6 19:09:57 10° SSE 19:14:17 67° ENE 19:18:40 10° N
Cosmos 2219 3.6 19:09:11 10° S 19:14:20 39° ESE 19:19:31 10° NE
Genesis I 3.7 19:10:40 10° NNW 19:14:34 48° NE 19:17:40 15° ESE
BREEZE-M DEB (TANK) 3.7 19:12:13 10° W 19:16:04 81° N 19:29:50 10° ENE
Cosmos 2333 Rocket 3.8 19:11:26 10° NW 19:16:30 33° WSW 19:21:33 10° SSW
SJ-6B 3.3 19:14:37 10° S 19:18:18 59° W 19:22:03 10° NNW
CZ-2C R/B 4.5 19:15:45 10° N 19:20:25 34° WNW 19:25:08 10° SW
Cosmos 2084 Rocket 3.8 19:18:55 10° S 19:22:31 34° ESE 19:26:11 10° ENE
ERS-2 3.9 19:19:28 10° N 19:22:48 35° WNW 19:26:09 10° SW
Cosmos 389 Rocket 2.4 19:19:25 10° S 19:22:57 75° E 19:26:31 10° NNE
FALCON 9 DEB 3.1 19:20:13 10° SW 19:23:06 42° SE 19:26:01 10° ENE
Cosmos 1190 Rocket 4.4 19:18:17 10° S 19:23:08 40° ESE 19:27:58 10° NE
Ariane Rocket 3.0 19:19:37 10° SSE 19:24:41 85° WSW 19:29:47 10° NNW
Cosmos 614 Rocket 4.0 19:21:30 10° SSW 19:26:39 83° WNW 19:31:47 10° NNE
Terra 3.9 19:25:18 10° E 19:27:21 13° NE 19:29:26 10° NNE
Cosmos 2251 Rocket 4.2 19:23:09 10° SW 19:28:28 61° WNW 19:33:46 10° NNE
FALCON 9 DEB 4.3 19:26:32 10° W 19:29:48 43° NNW 19:33:08 10° NE
ATLAS 3B R/B 3.6 19:24:33 10° NW 19:31:15 48° WSW 19:38:13 10° S
Cosmos 2279 Rocket 4.0 19:26:58 10° S 19:33:09 85° E 19:39:23 10° N
SPOT 1/Viking Rocket 4.2 19:33:39 18° SE 19:37:06 41° ENE 19:41:59 10° N
SPOT 5 4.4 19:34:55 15° E 19:37:07 20° ENE 19:40:35 10° NNE
Cosmos 1980 3.9 19:33:30 10° NNW 19:39:11 73° WSW 19:44:12 13° SSE
Cosmos-2242 3.3 19:35:48 14° SSE 19:39:16 45° E 19:43:23 10° NNE
SL-16 R/B 2.8 19:34:24 10° NNW 19:39:52 44° NE 19:43:26 20° ESE
USA 215 3.7 19:34:16 13° E 19:40:03 56° NNE 19:46:26 10° NW
Cosmos 2151 3.0 19:36:44 10° N 19:41:03 70° E 19:44:09 18° SSE
FALCON 9 DEB 2.8 19:41:53 10° SW 19:44:53 55° SE 19:46:41 21° ENE
SPOT 3 Rocket 3.5 19:40:39 15° SSE 19:44:56 77° ENE 19:50:08 10° NNW
COSMOS 2455 3.3 19:43:02 10° S 19:48:28 37° ESE 19:53:56 10° NE
SL-4 R/B 2.2 19:47:32 10° SW 19:51:50 59° SSE 19:56:26 10° ENE
Cosmos 2219 Rocket 4.5 19:49:17 10° NW 19:53:18 20° W 19:57:18 10° SW
BREEZE M DEB (TANK) 4.2 19:51:34 10° SSW 19:55:06 41° SE 20:05:02 10° ENE
ERS-1 Rocket 4.0 19:53:53 22° ESE 19:56:01 31° ENE 20:00:24 10° N
IGS 5A 3.4 19:54:21 22° SSE 19:57:00 89° W 20:01:11 10° NNW
Cosmos 2266 Rocket 4.0 19:51:27 10° N 19:57:51 78° E 20:02:35 19° SSE
OBJECT-B 3.6 19:56:06 10° SW 19:58:20 17° W 20:00:34 10° NW
Landsat 7 3.7 19:55:13 21° SSE 19:58:23 83° ENE 20:03:10 10° NNW
Cosmos 2221 4.0 20:05:05 20° E 20:05:05 20° E 20:07:56 10° NE
ARIANE 5 R/B 3.0 20:04:04 32° SE 20:05:41 49° ENE 20:09:56 10° N
Cosmos 2344 4.2 19:59:13 10° WSW 20:06:30 57° NW 20:14:35 10° NE
USA 245 3.0 20:05:59 44° SE 20:06:44 57° ENE 20:09:43 10° N
Cosmos 407 Rocket 3.8 20:02:07 10° SSW 20:07:14 69° WNW 20:12:26 10° NNE
MetOp-B 4.2 20:09:17 23° S 20:12:47 82° WSW 20:18:11 10° NNW
Meteor 2-3 Rocket 3.8 20:08:06 10° NNW 20:13:52 77° W 20:17:47 21° S
Meteor 1-27 4.2 20:14:09 16° S 20:18:54 79° E 20:24:46 10° NNE
Cosmos 44 Rocket 3.5 20:14:00 10° SSW 20:18:55 54° ESE 20:23:59 10° NE
Cosmos 1140 Rocket 4.0 20:15:28 10° SW 20:20:32 61° WNW 20:25:38 10° NNE
CZ-2C R/B 3.7 20:20:04 10° NNE 20:24:31 79° WNW 20:27:43 19° SSW
Cosmos 1954 Rocket 3.8 20:19:29 10° SSW 20:24:33 81° ESE 20:29:45 10° NNE
Cosmos 2237 Rocket 3.5 20:21:44 10° NW 20:26:45 34° WSW 20:30:48 14° SSW
Timation 2 Rocket 4.2 20:21:04 10° SW 20:27:37 75° WNW 20:33:55 10° NNE
Meteor 2-15 4.5 20:29:12 34° SSE 20:31:45 59° E 20:37:41 10° NNE
Cosmos 2263 Rocket 3.4 20:34:38 24° E 20:34:38 24° E 20:38:06 10° NE
Spot 2 Rocket 3.4 20:32:07 38° SSE 20:34:09 86° WSW 20:39:16 10° NNW
CARTOSAT-1 3.4 20:33:28 53° SSE 20:34:27 82° ENE 20:38:48 10° NNW
Aureole 1 Rocket 4.3 20:35:06 32° E 20:35:06 32° E 20:38:50 10° NE
Cosmos 1766 Rocket 3.6 20:30:45 10° NNW 20:35:06 77° W 20:36:22 45° S
USA 229 DEB 4.4 20:28:28 10° NW 20:35:30 52° NE 20:39:35 27° ESE
USA 229 4.4 20:28:34 10° NW 20:35:36 51° NE 20:39:41 27° ESE
BREEZE M DEB (TANK) 2.5 20:29:16 10° W 20:35:46 70° NNW 20:36:34 46° NE
FALCON 9 DEB 3.7 20:39:03 10° WSW 20:41:38 49° WNW 20:41:38 49° WNW
Cosmos 2227 Rocket 2.9 20:36:50 10° SW 20:42:23 55° WNW 20:47:58 10° NNE
Cosmos 2082 3.6 20:37:15 12° SSW 20:42:25 85° ESE 20:48:05 10° NNE
Okean 3 Rocket 3.9 20:39:46 10° NNW 20:44:15 63° W 20:45:39 41° SSW
H-2A R/B 4.2 20:41:21 10° NNE 20:44:43 39° ENE 20:44:43 39° ENE
FALCON 9 DEB 3.9 20:43:47 10° W 20:46:28 44° NW 20:46:28 44° NW
Lacrosse 5 rocket 3.0 20:44:18 10° NW 20:48:09 31° NNE 20:49:58 23° ENE
Cosmos 2297 Rocket 3.5 20:43:54 10° WSW 20:49:12 40° NW 20:54:33 10° NNE
Cosmos 1869 3.8 20:47:58 38° SW 20:49:12 57° WNW 20:53:06 10° N
Resurs 01 Rocket 3.6 20:46:10 13° SW 20:49:14 24° W 20:52:51 10° NW
Cosmos 1553 Rocket 4.2 20:48:26 43° ESE 20:49:37 48° E 20:55:27 10° NNE
Cosmos 468 Rocket 3.9 20:45:26 10° NNW 20:50:36 88° WSW 20:51:46 55° SSE
Meteor 1-4 Rocket 3.0 20:50:30 50° WSW 20:50:52 53° WNW 20:54:21 10° N
NOSS 3-1 (A) 4.3 20:46:20 10° NW 20:53:33 60° NE 20:57:37 32° ESE
Cosmos 1603 4.3 20:49:04 10° NNW 20:54:34 46° NE 20:55:59 38° E
Cosmos 841 Rocket 3.8 20:50:21 10° NNW 20:55:26 50° ENE 20:56:15 46° E
Cosmos 1763 Rocket 3.4 20:58:21 10° NNW 21:03:25 72° WSW 21:04:17 58° SSW
Terra 1.6 21:03:52 72° SE 21:04:21 84° ENE 21:09:09 10° NNW
Cosmos 1814 Rocket 4.4 21:06:02 10° NNW 21:11:12 49° ENE 21:11:45 47° E
Cosmos 540 Rocket 3.3 21:06:06 10° NNW 21:11:15 75° ENE 21:11:41 70° ESE
Cosmos 921 Rocket 3.5 21:08:20 10° N 21:12:21 50° NE 21:12:21 50° NE
SPOT 5 3.1 21:14:08 52° SW 21:14:44 57° W 21:19:30 10° NNW
Meteor 2-2 Rocket 4.2 21:15:41 48° SSW 21:17:23 81° W 21:23:07 10° N
NOSS 3-1 (C) 4.0 21:09:58 10° NW 21:17:28 81° SW 21:20:23 46° SSE
Cosmos 1842 Rocket 3.7 21:20:26 68° W 21:20:36 68° W 21:25:05 10° N
USA 215 3.3 21:21:35 51° S 21:23:02 63° SW 21:29:33 10° WNW
SL-16 R/B 3.3 21:18:48 10° NW 21:23:50 33° WSW 21:25:19 29° SW
SL-08 ROCKET BODY 4.4 21:24:26 10° NNW 21:30:30 76° W 21:31:36 59° SSW
SL-4 R/B 2.9 21:27:08 10° W 21:31:38 57° NNW 21:33:32 33° NE
COSMOS 2455 3.8 21:28:31 10° WSW 21:34:18 47° NW 21:40:07 10° NNE
ERS-1 Rocket 3.9 21:33:53 35° WSW 21:34:43 38° W 21:39:24 10° NNW
ATLAS 5 CENTAUR R/B 4.5 21:36:00 10° NNW 21:39:20 17° NNE 21:43:01 10° ENE
Cosmos 2227 4.1 21:40:44 77° ESE 21:40:44 77° ESE 21:46:31 10° NNE
Cosmos 2221 3.5 21:41:54 39° W 21:42:04 40° WNW 21:46:07 10° N
Sich 1 3.8 21:38:16 10° N 21:41:28 46° NNE 21:41:28 46° NNE
Cosmos 1805 Rocket 4.1 21:38:29 10° N 21:41:58 56° N 21:41:58 56° N
Meteor 1-20 Rocket 4.2 21:42:07 10° N 21:47:54 68° ENE 21:48:01 67° E
Cosmos 1943 3.1 21:44:23 10° NNW 21:50:03 79° WSW 21:50:07 79° SW
Cosmos 1745 Rocket 3.9 21:46:18 10° NNW 21:52:36 75° W 21:53:25 65° SSW
SeaSat 1 3.5 21:48:10 10° NE 21:51:19 36° ENE 21:51:19 36° ENE
Cosmos 1570 Rocket 4.0 21:48:12 10° NNW 21:53:15 74° W 21:53:15 74° W
Iridium 4 Rocket 4.4 21:58:16 38° ENE 21:58:16 38° ENE 22:02:28 10° NNE
Cosmos 1709 Rocket 3.8 21:51:37 10° N 21:57:50 74° E 21:58:09 72° ESE
Spot 4 4.2 22:00:15 58° NNE 22:00:15 58° NNE 22:04:27 10° N
Cosmos 1633 Rocket 4.2 21:59:13 10° N 22:02:12 38° NNE 22:02:12 38° NNE
S3M 4.2 22:05:25 58° SW 22:06:32 69° W 22:12:56 10° N
Cosmos 883 Rocket 4.3 22:06:43 80° SE 22:06:58 82° E 22:13:18 10° N
Cosmos 1666 Rocket 4.5 22:09:45 10° N 22:12:59 47° N 22:12:59 47° N
Cosmos 2263 Rocket 2.7 22:16:16 49° W 22:17:09 55° WNW 22:22:39 10° NNE
Cosmos 968 Rocket 4.2 22:22:53 45° NE 22:22:53 45° NE 22:26:42 10° NNE
USA 229 DEB 4.2 22:19:33 10° NW 22:26:34 49° WSW 22:27:01 49° SW
USA 229 4.2 22:19:38 10° NW 22:26:41 50° WSW 22:27:07 49° SW
Lacrosse 5 rocket 3.1 22:23:17 10° NW 22:25:35 31° WNW 22:25:35 31° WNW
Cosmos 1844 Rocket 3.7 22:30:56 36° ENE 22:30:56 36° ENE 22:34:37 10° NE
Cosmos 1151 Rocket 4.4 22:34:17 37° N 22:34:17 37° N 22:36:57 10° N
ALOS 2 3.7 22:35:37 42° N 22:35:37 42° N 22:38:36 10° N
CZ-4C R/B 4.5 22:34:52 10° NNW 22:40:35 29° NNE 22:47:09 10° E
Terra 4.2 22:42:45 13° W 22:42:45 13° W 22:44:47 10° WNW
Cosmos 1833 Rocket 4.5 22:49:16 10° N 22:53:54 25° NE 22:56:05 20° E
Cosmos 1486 Rocket 4.4 22:57:27 61° N 22:57:27 61° N 23:01:51 10° NNE
Meteor 1-5 Rocket 4.4 22:56:29 10° N 23:01:31 70° N 23:01:31 70° N
Cosmos 2154 Rocket 4.2 22:57:42 10° N 23:04:02 62° ENE 23:04:10 62° E
Meteor 2-6 Rocket 4.4 23:11:23 62° NNE 23:11:23 62° NNE 23:15:53 10° NNE
SL-4 R/B 4.2 23:07:15 10° WNW 23:09:09 23° WNW 23:09:09 23° WNW
Cosmos 2184 Rocket 3.9 23:08:49 10° N 23:14:58 78° WNW 23:14:58 78° WNW
SJ 16-02 3.9 23:17:22 13° ENE 23:17:22 13° ENE 23:18:23 10° ENE
Cosmos 2278 Rocket 4.0 23:19:29 20° E 23:19:29 20° E 23:22:36 10° NE
ATLAS 5 CENTAUR R/B 3.1 23:20:00 10° NNW 23:25:12 46° NE 23:27:06 35° E
SeaSat 1 3.9 23:26:05 10° N 23:30:18 29° NW 23:31:05 28° WNW
Cosmos 2341 Rocket 4.4 23:24:11 10° N 23:30:25 52° ENE 23:31:01 50° E
Cosmos 1295 Rocket 4.4 23:24:26 10° N 23:30:44 81° ENE 23:30:44 81° ENE
Cosmos 1241 Rocket 4.5 23:33:02 82° W 23:33:15 83° NW 23:39:55 10° NE
Cosmos 1844 3.9 23:41:40 65° NW 23:41:40 65° NW 23:47:09 10° NNE
Cosmos 2074 Rocket 4.4 23:35:27 10° NNW 23:41:12 49° W 23:41:12 49° W
USA 281 3.0 23:43:08 80° SSE 23:43:34 89° ENE 23:50:12 10° NNW
COSMOS 2406 3.7 23:38:47 10° NNW 23:44:20 52° ENE 23:44:55 50° ENE
Cosmos 962 Rocket 4.3 23:46:20 10° N 23:52:34 83° E 23:52:36 83° E
Gbstr 26 Del rocket 4.0 23:53:47 63° E 23:53:47 63° E 23:58:29 10° ENE
